Location: ????????
(55.7667°N, 37.4833°E)
Time: 07:08:20
(UTC+00:00)

Cosmos 2237 Rocket - Pass Details

Date: 19 May 2025
Orbit: 834 x 849 km, 71.0° (Epoch: 23 June)

Event Time Altitude Azimuth Distance (km) Brightness Sun altitude
Rises 21:57:22 0° 324° (NW) 3,399 6.1 -14.0°
Reaches altitude 10° 21:59:56 10° 331° (NNW) 2,464 5.4 -13.9°
Maximum altitude 22:05:21 45° 43° (NE) 1,140 3.3 -13.8°
Drops below altitude 10° 22:10:46 10° 116° (ESE) 2,462 4.5 -13.7°
Sets 22:13:19 0° 123° (ESE) 3,396 5.1 -13.6°
